Location: Unspecified
(0.0000°N, 0.0000°E)
Time: 20:46:47
(UTC+01:00)

Sapphire - Visible Passes

Search period start: 12 December 2017 00:00
Search period end: 22 December 2017 00:00
Orbit: 787 x 794 km, 67.1° (Epoch: 11 December)

Date Brightness Start Highest point End Pass type
(mag) Time Alt. Az. Time Alt. Az. Time Alt. Az.
12 Dec ? 06:10:29 10° NNE 06:14:16 19° ENE 06:18:02 10° ESE visible
13 Dec ? 05:41:31 10° NE 05:43:35 12° ENE 05:45:40 10° E visible
13 Dec ? 20:00:26 10° W 20:03:02 14° WNW 20:05:39 10° NW visible
14 Dec ? 19:28:21 10° WSW 19:32:23 21° WNW 19:36:24 10° NNW visible
15 Dec ? 06:20:04 10° NNW 06:25:28 80° ENE 06:30:51 10° SSE visible
16 Dec ? 05:49:36 10° N 05:54:49 51° ENE 06:00:02 10° SE visible
17 Dec ? 05:19:23 10° N 05:24:11 33° ENE 05:28:58 10° SE visible
18 Dec ? 04:50:14 13° NNE 04:53:31 21° ENE 04:57:33 10° ESE visible
18 Dec ? 06:32:19 10° NW 06:36:39 25° WSW 06:41:00 10° SSW visible
19 Dec ? 04:21:20 12° NE 04:22:52 14° ENE 04:25:29 10° E visible
19 Dec ? 06:02:07 16° NW 06:06:00 38° WSW 06:10:59 10° S visible
20 Dec ? 05:33:10 34° NW 05:35:21 60° WSW 05:40:40 10° S visible
21 Dec ? 05:04:09 72° NNW 05:04:43 88° ENE 05:10:07 10° SSE visible
